Location: Flensburg
(54.6357°N, 9.5142°E)
Time: 10:55:36
(UTC+01:00)

ISS - Pass Details

Date: 08 January 2018
Orbit: 402 x 407 km, 51.6° (Epoch: 18 January)

Event Time Altitude Azimuth Distance (km) Brightness Sun altitude
Exits shadow 05:06:13 14° 101° (E) 1,253 -0.6 -29.8°
Drops below altitude 10° 05:06:46 10° 98° (E) 1,470 -0.1 -29.7°
Sets 05:08:53 0° 93° (E) 2,332 1.2 -29.4°
